This is the latest recevied weather packets stored in our database for station/object HB9BTL-13. If no packets are shown the sender has not sent any weather packets the latest 10 day(s).
| Time | Temp. | Humidity | Pressure | Rain* | Wind** | Luminosity | Snow |
|---|---|---|---|---|---|---|---|
| 1777776312 | 15° C | 80% | 1016.5 hPa | - | - | - | - |
| 1777775407 | 15° C | 81% | 1016.8 hPa | - | - | - | - |
| 1777774502 | 15° C | 79% | 1016.9 hPa | - | - | - | - |
| 1777773596 | 15.56° C | 78% | 1017 hPa | - | - | - | - |
| 1777772691 | 15.56° C | 77% | 1017 hPa | - | - | - | - |
| 1777771785 | 15.56° C | 76% | 1017 hPa | - | - | - | - |
| 1777770881 | 15° C | 76% | 1017 hPa | - | - | - | - |
| 1777769976 | 16.11° C | 72% | 1017.1 hPa | - | - | - | - |
| 1777769070 | 16.67° C | 71% | 1017.2 hPa | - | - | - | - |
| 1777768165 | 16.67° C | 69% | 1017.3 hPa | - | - | - | - |
| 1777767259 | 16.11° C | 68% | 1017.4 hPa | - | - | - | - |
| 1777766354 | 16.11° C | 69% | 1017.4 hPa | - | - | - | - |
| 1777765448 | 17.22° C | 61% | 1017.3 hPa | - | - | - | - |
| 1777764543 | 17.22° C | 63% | 1017.3 hPa | - | - | - | - |
| 1777763637 | 17.78° C | 62% | 1017.3 hPa | - | - | - | - |
| 1777762732 | 17.78° C | 65% | 1017.3 hPa | - | - | - | - |
| 1777761826 | 17.78° C | 67% | 1017.3 hPa | - | - | - | - |
| 1777760921 | 17.78° C | 68% | 1017.4 hPa | - | - | - | - |
| 1777760016 | 17.78° C | 71% | 1017.3 hPa | - | - | - | - |
| 1777759110 | 18.33° C | 70% | 1017.3 hPa | - | - | - | - |
| 1777758206 | 18.33° C | 68% | 1017.2 hPa | - | - | - | - |
| 1777757300 | 17.78° C | 70% | 1017.2 hPa | - | - | - | - |
| 1777756395 | 18.33° C | 68% | 1017.1 hPa | - | - | - | - |
| 1777755489 | 18.89° C | 62% | 1017.1 hPa | - | - | - | - |
| 1777754584 | 18.89° C | 63% | 1017.2 hPa | - | - | - | - |
* Rain since midnight (hover to see other rain measurements)
** Current wind speed in m/s (hover to see current wind gust speed)